[[{"header":{"parameterUnit":"m.s-1","parameterCategory":1,"la1":30.2991,"la2":30.254,"lo1":-89.0895,"lo2":-89.0444,"dy":0.0017,"dx":0.0017,"nx":28,"ny":28,"refTime":"2025-06-01T21:00:00:Z","depth":0,"parameterNumber":2,"parameterNumberName":"U-component_of_WINDS"},"data":[0,0,0,0,0,0,0,0,0,0,0,0,0,0,0,0,0,0,0,0,0,0,0,0,0,0,0,0,0,0,0,0,0,0,0,0,0,0,0,0,0,0,0,0,0,0,0,0,0,0,0,0,0,0,0,0,0,0,0.1147,0.1147,0,0.1093,0.1093,0.1092,0.1092,0.1092,0.1093,0.1094,0.1037,0.1035,0.1033,0,0,0,0,0,0,0,0,0,0,0,0,0,0.1249,0.1247,0.1147,0.1146,0.1146,0.1093,0.1093,0.1092,0.1092,0.1093,0.1093,0.1094,0.1038,0.1035,0.1033,0,0,0,0,0,0,0,0,0,0,0,0,0,0.1201,0.1247,0.1147,0.1139,0.1138,0.1093,0.1093,0.1092,0.1091,0.1093,0.1094,0.1095,0.1039,0.1036,0.1032,0.0992,0,0,0.1023,0.1021,0,0,0,0,0,0,0,0,0.1204,0.1197,0.1141,0.114,0.1138,0.11,0.1108,0.1058,0.1091,0.1109,0.1094,0.1095,0.1057,0.1053,0.104,0.0989,0.0987,0.1022,0.102,0.1019,0.1018,0,0,0,0,0,0,0,0.1207,0.1199,0.1126,0.114,0.1139,0.1138,0.1133,0.1098,0.1078,0.1108,0.1108,0.1101,0.1057,0.1043,0.1039,0.0986,0.1022,0.102,0.1018,0.1016,0.0899,0.0898,0,0,0,0,0,0,0.1212,0.1202,0.1127,0.1124,0.1174,0.1136,0.1129,0.1111,0.1078,0.1074,0.11,0.1101,0.1048,0.1043,0.1037,0.0988,0.1019,0.1016,0.1014,0.09,0.0899,0.0898,0,0,0,0,0,0,0.1214,0.1205,0.113,0.1163,0.1154,0.1133,0.1113,0.111,0.1096,0.1073,0.1069,0.1091,0.1049,0.1041,0.1003,0.0986,0.1014,0.1012,0.0902,0.09,0.0898,0.0889,0,0,0,0,0,0,0.1217,0.1206,0.1191,0.1163,0.1152,0.1097,0.1112,0.1108,0.1091,0.1092,0.1063,0.1059,0.1049,0.1008,0.1,0.0982,0.1009,0.0903,0.0901,0.0899,0.0891,0.0887,0.0884,0,0,0,0,0,0.1221,0.1189,0.119,0.1181,0.1132,0.1096,0.109,0.108,0.109,0.1074,0.1059,0.106,0.0989,0.1004,0.0995,0.0976,0.0904,0.0902,0.0899,0.0892,0.0888,0.0884,0,0,0,0,0,0,0.1215,0.1186,0.1186,0.1144,0.1123,0.1096,0.1076,0.1075,0.105,0.1052,0.104,0.1033,0.0996,0.0982,0.0999,0.0935,0.0948,0.0943,0.0946,0.0941,0.0938,0.0942,0.1006,0,0,0,0,0,0.1209,0.1183,0.1158,0.1124,0.1114,0.1097,0.1081,0.1075,0.1052,0.1043,0.1025,0.1002,0.0975,0.0957,0.093,0.0888,0.0882,0.0871,0.0867,0.0864,0.0861,0.0839,0.0833,0.0889,0.0889,0.0889,0,0,0.1196,0.1177,0.1161,0.1123,0.1105,0.1078,0.1089,0.106,0.104,0.1038,0.1001,0.0987,0.0961,0.0921,0.0903,0.0908,0.0844,0.0861,0.0859,0.0857,0.0835,0.083,0.0825,0.0887,0.0888,0.0888,0,0,0.1159,0.1142,0.1112,0.1095,0.1069,0.1058,0.105,0.1024,0.1015,0.0978,0.0977,0.0952,0.0905,0.0887,0.0872,0.0829,0.0829,0.082,0.0803,0.0781,0.0777,0.0773,0.0759,0.0753,0.0817,0.0817,0.0817,0,0.1146,0.1106,0.1097,0.1068,0.1051,0.1049,0.1019,0.1003,0.0969,0.0958,0.0965,0.0906,0.0888,0.0845,0.0835,0.0822,0.0814,0.0824,0.0778,0.0774,0.077,0.0757,0.0751,0.0816,0.0816,0.0816,0.0816,0,0.1093,0.1065,0.1044,0.1012,0.0993,0.0964,0.095,0.0932,0.0928,0.0916,0.0879,0.0857,0.0827,0.0816,0.0811,0.0772,0.0776,0.0781,0.0794,0.0765,0.0751,0.0746,0.0815,0.0815,0.0815,0.0815,0,0,0.105,0.1015,0.1007,0.0994,0.0965,0.0943,0.0914,0.0885,0.087,0.0847,0.0822,0.0783,0.0787,0.077,0.0763,0.0744,0.0712,0.0751,0.075,0.0745,0.0669,0.0666,0.066,0.0712,0.0711,0.071,0.0671,0,0.1011,0.096,0.0951,0.0906,0.0881,0.0879,0.0853,0.0833,0.0821,0.0798,0.0784,0.0757,0.0764,0.0754,0.0735,0.072,0.0697,0.0723,0.069,0.0688,0.0697,0.0653,0.065,0.0614,0.0666,0.0665,0.0664,0,0.0959,0.0936,0.0889,0.0864,0.0853,0.0831,0.0804,0.0781,0.0758,0.0751,0.0732,0.0728,0.0697,0.0711,0.0669,0.0687,0.0673,0.0664,0.0662,0.0659,0.0675,0.065,0.0602,0.0598,0.0656,0.0657,0.0657,0,0.0935,0.0891,0.0858,0.0846,0.0816,0.0801,0.0787,0.0765,0.0749,0.0725,0.0715,0.0687,0.0672,0.0651,0.064,0.0651,0.0599,0.0612,0.0593,0.0593,0.0583,0.0584,0.0533,0.0572,0.0572,0.0572,0.0572,0,0.0893,0.0864,0.0847,0.0826,0.0794,0.0784,0.0752,0.0739,0.072,0.0697,0.0693,0.0671,0.0657,0.0633,0.0624,0.0591,0.0584,0.0578,0.0576,0.0579,0.058,0.057,0.0572,0.057,0.0571,0.0571,0.0571,0,0.086,0.0847,0.0811,0.0786,0.0779,0.0757,0.0736,0.0716,0.0704,0.0675,0.0668,0.065,0.0622,0.0608,0.0573,0.0566,0.053,0.0529,0.0538,0.0537,0.052,0.0522,0.0462,0.0454,0.0497,0.0496,0.0496,0,0.0835,0.0813,0.0786,0.0771,0.0758,0.0733,0.0716,0.0705,0.0688,0.0661,0.0644,0.0616,0.0593,0.0548,0.0532,0.0505,0.0504,0.0485,0.05,0.0504,0.0505,0.0507,0.0505,0.0482,0.0482,0.0481,0.0481,0,0.0791,0.0786,0.0763,0.0737,0.0718,0.0697,0.0677,0.0664,0.0649,0.063,0.0602,0.0584,0.0549,0.0522,0.0494,0.048,0.0478,0.0476,0.0471,0.0474,0.0481,0.0478,0.0532,0.0478,0.0478,0.0479,0.0479,0.0479,0.0762,0.0743,0.0722,0.0696,0.068,0.0661,0.0641,0.0628,0.0604,0.0575,0.057,0.054,0.0518,0.0481,0.0466,0.0442,0.0447,0.0438,0.0436,0.0434,0.0434,0.0484,0.0437,0.0437,0.0437,0.0437,0.0437,0,0.0719,0.0706,0.0682,0.0654,0.0634,0.0635,0.0612,0.0595,0.057,0.0549,0.0527,0.0495,0.0468,0.045,0.0423,0.0408,0.0406,0.0401,0.0402,0.0399,0.0431,0.0439,0.0403,0.0403,0.0403,0.0403,0.0403,0.0403,0.0695,0.0663,0.0656,0.0616,0.0602,0.0574,0.0561,0.0544,0.0528,0.0493,0.0471,0.0459,0.044,0.0411,0.0387,0.0382,0.0373,0.0367,0.0363,0.0393,0.0397,0.0401,0.0408,0.0365,0.0365,0.0333,0.0333,0.0333]},{"header":{"parameterUnit":"m.s-1","parameterCategory":1,"la1":30.2991,"la2":30.254,"lo1":-89.0895,"lo2":-89.0444,"dy":0.0017,"dx":0.0017,"nx":28,"ny":28,"refTime":"2025-06-01T21:00:00:Z","depth":0,"parameterNumber":3,"parameterNumberName":"V-component_of_WINDS"},"data":[0,0,0,0,0,0,0,0,0,0,0,0,0,0,0,0,0,0,0,0,0,0,0,0,0,0,0,0,0,0,0,0,0,0,0,0,0,0,0,0,0,0,0,0,0,0,0,0,0,0,0,0,0,0,0,0,0,0,-0.737,-0.737,0,-0.7371,-0.7371,-0.7371,-0.734,-0.7339,-0.7338,-0.7338,-0.7339,-0.734,-0.7341,0,0,0,0,0,0,0,0,0,0,0,0,0,-0.7341,-0.7342,-0.737,-0.737,-0.737,-0.7371,-0.7371,-0.7371,-0.734,-0.7339,-0.7338,-0.7337,-0.7339,-0.734,-0.7341,0,0,0,0,0,0,0,0,0,0,0,0,0,-0.7349,-0.7342,-0.737,-0.7355,-0.7353,-0.7371,-0.7371,-0.7371,-0.734,-0.7339,-0.7338,-0.7337,-0.7339,-0.734,-0.7341,-0.7374,0,0,-0.7345,-0.7346,0,0,0,0,0,0,0,0,-0.7349,-0.735,-0.7357,-0.7356,-0.7354,-0.7354,-0.7362,-0.7372,-0.7341,-0.7345,-0.7338,-0.7336,-0.7345,-0.7346,-0.7349,-0.7374,-0.7374,-0.7345,-0.7346,-0.7346,-0.7347,0,0,0,0,0,0,0,-0.7348,-0.735,-0.7371,-0.7357,-0.7356,-0.7348,-0.7348,-0.7364,-0.7352,-0.7345,-0.7343,-0.7343,-0.7344,-0.7348,-0.7349,-0.7374,-0.7345,-0.7346,-0.7347,-0.7348,-0.7427,-0.7428,0,0,0,0,0,0,-0.735,-0.735,-0.7371,-0.7371,-0.7348,-0.7349,-0.7349,-0.7356,-0.7352,-0.735,-0.7344,-0.7342,-0.7346,-0.7347,-0.7349,-0.7387,-0.7346,-0.7348,-0.7348,-0.7425,-0.7427,-0.7429,0,0,0,0,0,0,-0.7349,-0.7352,-0.7371,-0.736,-0.7361,-0.7351,-0.7359,-0.7356,-0.736,-0.7352,-0.735,-0.735,-0.7345,-0.7347,-0.7368,-0.7387,-0.7348,-0.7349,-0.7424,-0.7426,-0.7428,-0.7465,0,0,0,0,0,0,-0.7349,-0.7352,-0.7364,-0.736,-0.7362,-0.739,-0.736,-0.7357,-0.7362,-0.7359,-0.7356,-0.7355,-0.7345,-0.7366,-0.7369,-0.7388,-0.735,-0.7422,-0.7425,-0.7427,-0.7462,-0.7468,-0.7473,0,0,0,0,0,-0.7348,-0.7375,-0.7365,-0.7368,-0.7377,-0.7391,-0.7392,-0.738,-0.7364,-0.7376,-0.7371,-0.7355,-0.7384,-0.7369,-0.7372,-0.7391,-0.7421,-0.7424,-0.7427,-0.7459,-0.7467,-0.7473,0,0,0,0,0,0,-0.7381,-0.7374,-0.7363,-0.739,-0.7391,-0.7386,-0.7401,-0.7388,-0.7394,-0.7391,-0.7375,-0.7375,-0.7399,-0.7397,-0.738,-0.7423,-0.74,-0.7404,-0.7423,-0.743,-0.7436,-0.7436,-0.7351,0,0,0,0,0,-0.7392,-0.7404,-0.7396,-0.742,-0.7422,-0.7411,-0.7417,-0.7407,-0.7408,-0.7409,-0.7405,-0.7407,-0.7416,-0.7423,-0.7431,-0.7461,-0.746,-0.7476,-0.7482,-0.7486,-0.749,-0.7506,-0.7513,-0.7439,-0.7439,-0.7439,0,0,-0.7414,-0.7411,-0.7419,-0.7427,-0.7427,-0.744,-0.7412,-0.7426,-0.7436,-0.7411,-0.7431,-0.7428,-0.7429,-0.7455,-0.7466,-0.7454,-0.751,-0.749,-0.7494,-0.7495,-0.7509,-0.7517,-0.7523,-0.7441,-0.744,-0.744,0,0,-0.746,-0.7459,-0.7479,-0.748,-0.748,-0.7473,-0.7478,-0.7474,-0.7472,-0.7491,-0.7473,-0.7484,-0.7501,-0.7502,-0.7505,-0.7552,-0.7538,-0.7555,-0.7584,-0.76,-0.7606,-0.7611,-0.7628,-0.7634,-0.7559,-0.7559,-0.7559,0,-0.7487,-0.7505,-0.7491,-0.7507,-0.7511,-0.7489,-0.7509,-0.751,-0.7514,-0.7517,-0.7504,-0.7524,-0.7523,-0.7549,-0.7561,-0.7564,-0.7569,-0.7555,-0.7606,-0.7611,-0.7616,-0.7632,-0.7638,-0.7561,-0.7561,-0.756,-0.756,0,-0.7539,-0.7552,-0.7568,-0.7572,-0.7577,-0.7595,-0.7584,-0.7592,-0.7581,-0.7576,-0.7596,-0.7594,-0.7602,-0.7607,-0.7597,-0.7631,-0.7624,-0.7609,-0.7585,-0.7625,-0.764,-0.7646,-0.7564,-0.7563,-0.7563,-0.7562,0,0,-0.7607,-0.7602,-0.7609,-0.761,-0.7609,-0.7619,-0.7636,-0.7643,-0.765,-0.7653,-0.7667,-0.7682,-0.7667,-0.7671,-0.7661,-0.7675,-0.7712,-0.7657,-0.7657,-0.7668,-0.775,-0.7762,-0.777,-0.7703,-0.7704,-0.7705,-0.775,0,-0.7652,-0.7681,-0.7669,-0.7699,-0.771,-0.769,-0.7704,-0.7705,-0.7701,-0.771,-0.7705,-0.7715,-0.7695,-0.7697,-0.771,-0.7705,-0.7729,-0.7701,-0.7716,-0.7717,-0.7717,-0.7777,-0.779,-0.7834,-0.7756,-0.7757,-0.7758,0,-0.7709,-0.7714,-0.7745,-0.7742,-0.7747,-0.776,-0.7766,-0.7775,-0.7776,-0.7772,-0.7776,-0.7763,-0.7779,-0.7755,-0.7778,-0.776,-0.7765,-0.7763,-0.7765,-0.7766,-0.774,-0.7781,-0.7847,-0.7854,-0.7767,-0.7766,-0.7765,0,-0.7756,-0.7771,-0.7791,-0.7793,-0.779,-0.78,-0.7799,-0.7799,-0.7804,-0.7809,-0.7812,-0.7819,-0.7823,-0.7829,-0.7819,-0.7802,-0.7843,-0.7818,-0.784,-0.784,-0.785,-0.785,-0.7918,-0.7853,-0.7853,-0.7852,-0.7852,0,-0.7808,-0.7828,-0.7812,-0.7825,-0.7847,-0.7833,-0.7855,-0.7852,-0.7851,-0.7863,-0.7845,-0.7857,-0.7842,-0.7852,-0.7844,-0.7864,-0.7866,-0.7863,-0.7861,-0.7865,-0.7865,-0.7868,-0.7865,-0.7854,-0.7854,-0.7853,-0.7853,0,-0.7864,-0.7854,-0.7876,-0.7871,-0.787,-0.7887,-0.7882,-0.7894,-0.7888,-0.7903,-0.7906,-0.7897,-0.7908,-0.7897,-0.7908,-0.7902,-0.7929,-0.7923,-0.7929,-0.7928,-0.795,-0.7948,-0.8023,-0.8033,-0.7961,-0.7961,-0.7962,0,-0.7898,-0.7913,-0.791,-0.7917,-0.7917,-0.7928,-0.7933,-0.792,-0.7926,-0.7928,-0.7939,-0.7949,-0.7956,-0.7974,-0.7969,-0.7977,-0.797,-0.7996,-0.7971,-0.7975,-0.7971,-0.797,-0.7972,-0.8001,-0.8002,-0.8003,-0.8003,0,-0.796,-0.7954,-0.7963,-0.797,-0.7976,-0.7981,-0.7984,-0.7991,-0.7977,-0.7985,-0.7996,-0.8001,-0.8012,-0.8022,-0.8028,-0.8027,-0.8013,-0.8011,-0.8016,-0.8021,-0.8024,-0.8023,-0.7943,-0.8009,-0.8009,-0.8008,-0.8008,-0.8008,-0.8006,-0.8019,-0.8018,-0.8028,-0.8029,-0.8033,-0.8044,-0.8039,-0.8048,-0.8056,-0.8047,-0.8061,-0.8061,-0.8068,-0.8069,-0.8079,-0.8068,-0.8076,-0.8078,-0.808,-0.8084,-0.8023,-0.808,-0.808,-0.808,-0.8079,-0.8079,0,-0.8067,-0.8066,-0.8075,-0.808,-0.8088,-0.8074,-0.8077,-0.8085,-0.8097,-0.8098,-0.8106,-0.8118,-0.8128,-0.8123,-0.8131,-0.814,-0.8134,-0.8143,-0.8142,-0.8142,-0.8093,-0.8088,-0.8148,-0.8148,-0.8148,-0.8148,-0.8148,-0.8148,-0.81,-0.812,-0.8115,-0.8135,-0.8134,-0.8147,-0.815,-0.8153,-0.8155,-0.817,-0.8177,-0.8174,-0.8173,-0.8181,-0.8189,-0.8187,-0.8191,-0.8202,-0.8198,-0.8152,-0.8146,-0.8139,-0.8134,-0.8203,-0.8203,-0.8247,-0.8247,-0.8247]}]]